Air Quality Table

TIMESTAMP NO2 SO2 O3 PM10 TEMP HUM AIRPRES WS WD NO
2021-08-04 06:00 16.13 ug/m3 1.16 ug/m3 81.48 ug/m3 62.79 ug/m3 27.43 C 96.09 % 1,006.49 mbar 3.91 m/s 182.57 Deg 0.87 ug/m3
2021-08-04 05:00 3.57 ug/m3 1.04 ug/m3 94.54 ug/m3 57.04 ug/m3 27.33 C 99.65 % 1,006.43 mbar 4.62 m/s 171.6 Deg 0.33 ug/m3
2021-08-04 04:00 2.5 ug/m3 0.93 ug/m3 93.61 ug/m3 64.2 ug/m3 27.28 C 97.93 % 1,006.56 mbar 3.86 m/s 165.82 Deg 0.31 ug/m3
2021-08-04 03:00 6.26 ug/m3 1.26 ug/m3 82.8 ug/m3 61.19 ug/m3 27.1 C 96.11 % 1,006.76 mbar 2.86 m/s 150.38 Deg 0.37 ug/m3
2021-08-04 02:00 3.13 ug/m3 1.14 ug/m3 87.15 ug/m3 71.39 ug/m3 26.97 C 97.32 % 1,007.08 mbar 2.44 m/s 146.33 Deg 0.33 ug/m3
2021-08-04 01:00 1.65 ug/m3 1.08 ug/m3 93.07 ug/m3 89.87 ug/m3 27.15 C 97.74 % 1,007.71 mbar 2.29 m/s 123.6 Deg 0.31 ug/m3
2021-08-04 00:00 2.4 ug/m3 1.22 ug/m3 96.49 ug/m3 100.9 ug/m3 27.33 C 97.83 % 1,008.20 mbar 2.31 m/s 112.05 Deg 0.32 ug/m3
2021-08-03 23:00 5.37 ug/m3 1.05 ug/m3 98.12 ug/m3 117.62 ug/m3 27.51 C 97.4 % 1,008.36 mbar 2.32 m/s 117.67 Deg 0.36 ug/m3
2021-08-03 22:00 8.74 ug/m3 1.2 ug/m3 89.87 ug/m3 106.51 ug/m3 27.95 C 95.04 % 1,008.48 mbar 2.15 m/s 110.47 Deg 0.39 ug/m3
2021-08-03 21:00 11.34 ug/m3 1.15 ug/m3 98.57 ug/m3 91.74 ug/m3 28.42 C 89.02 % 1,008.16 mbar 1.74 m/s 83.2 Deg 0.42 ug/m3
2021-08-03 20:00 10.94 ug/m3 0.95 ug/m3 101.99 ug/m3 54.55 ug/m3 28.82 C 84.95 % 1,007.71 mbar 1.65 m/s 69.57 Deg 2.26 ug/m3
2021-08-03 19:00 6.64 ug/m3 1.16 ug/m3 101.7 ug/m3 40.71 ug/m3 29.41 C 77.91 % 1,007.28 mbar 2.21 m/s 109.9 Deg 0.64 ug/m3
2021-08-03 18:00 3.46 ug/m3 1.25 ug/m3 105.77 ug/m3 42.38 ug/m3 29.64 C 77.89 % 1,007.07 mbar 3.15 m/s 103.83 Deg 0.43 ug/m3
2021-08-03 17:00 2.96 ug/m3 1.18 ug/m3 95.8 ug/m3 23.71 ug/m3 30.57 C 71.98 % 1,007.12 mbar 3.28 m/s 94.78 Deg 0.51 ug/m3
2021-08-03 16:00 3.69 ug/m3 1.14 ug/m3 97.89 ug/m3 22.33 ug/m3 30.94 C 71.35 % 1,007.31 mbar 3.35 m/s 96.52 Deg 0.54 ug/m3
2021-08-03 15:00 4.62 ug/m3 1.25 ug/m3 84.5 ug/m3 14.83 ug/m3 31.63 C 71.62 % 1,007.34 mbar 2.55 m/s 85.55 Deg 0.89 ug/m3
2021-08-03 14:00 5.52 ug/m3 1.27 ug/m3 81.37 ug/m3 12.15 ug/m3 32.86 C 66.21 % 1,007.59 mbar 2.23 m/s 65.83 Deg 0.99 ug/m3
2021-08-03 13:00 6.09 ug/m3 1.16 ug/m3 80.81 ug/m3 16.21 ug/m3 32.1 C 70.8 % 1,007.88 mbar 2.28 m/s 55.88 Deg 1.12 ug/m3
2021-08-03 12:00 7.53 ug/m3 1.31 ug/m3 82.9 ug/m3 21.02 ug/m3 31.57 C 74.98 % 1,008.04 mbar 2.62 m/s 69.57 Deg 1.85 ug/m3
2021-08-03 11:00 7.72 ug/m3 1.2 ug/m3 85.15 ug/m3 31.58 ug/m3 32.53 C 67.15 % 1,007.82 mbar 2.3 m/s 78.98 Deg 1.2 ug/m3
2021-08-03 10:00 4.12 ug/m3 1.15 ug/m3 87.65 ug/m3 53.88 ug/m3 31.41 C 74.89 % 1,007.51 mbar 1.56 m/s 112.8 Deg 0.72 ug/m3
2021-08-03 09:00 3.98 ug/m3 1.19 ug/m3 88.1 ug/m3 99.8 ug/m3 29.96 C 83.29 % 1,007.31 mbar 1.46 m/s 91.15 Deg 0.62 ug/m3
2021-08-03 08:00 6.58 ug/m3 1.14 ug/m3 82.14 ug/m3 117.29 ug/m3 27.99 C 97.51 % 1,006.82 mbar 2.17 m/s 121.92 Deg 0.96 ug/m3
2021-08-03 07:00 11.63 ug/m3 1.43 ug/m3 66.47 ug/m3 116.94 ug/m3 27.44 C 99.91 % 1,006.47 mbar 2.08 m/s 95.31 Deg 1.01 ug/m3
2021-08-03 06:00 15.83 ug/m3 1.12 ug/m3 65.11 ug/m3 99.61 ug/m3 27.45 C 99.92 % 1,006.20 mbar 1.47 m/s 53.73 Deg 1.24 ug/m3
2021-08-03 05:00 12.22 ug/m3 1.13 ug/m3 62.82 ug/m3 82.99 ug/m3 27.74 C 96.98 % 1,005.80 mbar 1.43 m/s 64.55 Deg 0.77 ug/m3
2021-08-03 04:00 14.88 ug/m3 1.15 ug/m3 52.61 ug/m3 79.88 ug/m3 28.21 C 88.56 % 1,005.83 mbar 2 m/s 193.22 Deg 0.85 ug/m3
2021-08-03 03:00 9.37 ug/m3 1.26 ug/m3 67.65 ug/m3 70.02 ug/m3 28.45 C 84.55 % 1,005.72 mbar 1.08 m/s 129.1 Deg 0.54 ug/m3
2021-08-03 02:00 8.88 ug/m3 1.4 ug/m3 66.84 ug/m3 109.19 ug/m3 28.5 C 82.92 % 1,005.98 mbar 0.81 m/s 116.9 Deg 0.41 ug/m3
2021-08-03 01:00 7.58 ug/m3 1.35 ug/m3 66.37 ug/m3 159.14 ug/m3 28 C 92.18 % 1,006.34 mbar 1.32 m/s 156.73 Deg 0.39 ug/m3
2021-08-03 00:00 6.61 ug/m3 1.45 ug/m3 77.67 ug/m3 98 ug/m3 28.55 C 89.26 % 1,006.78 mbar 1 m/s 111.7 Deg 0.44 ug/m3
2021-08-02 23:00 19.22 ug/m3 1.47 ug/m3 75.96 ug/m3 34.91 ug/m3 30.45 C 56.34 % 1,006.72 mbar 1.39 m/s 51.7 Deg 0.72 ug/m3
2021-08-02 22:00 13.04 ug/m3 1.42 ug/m3 79.35 ug/m3 34.87 ug/m3 31.74 C 39.87 % 1,006.64 mbar 1.06 m/s 40.92 Deg 0.82 ug/m3
2021-08-02 21:00 27.19 ug/m3 1.51 ug/m3 56.84 ug/m3 59.86 ug/m3 32.05 C 45.92 % 1,006.09 mbar 0.85 m/s 79.62 Deg 1.49 ug/m3
2021-08-02 20:00 30 ug/m3 1.49 ug/m3 57.59 ug/m3 68.19 ug/m3 31.74 C 59.16 % 1,005.65 mbar 0.65 m/s 117.72 Deg 1.89 ug/m3
2021-08-02 19:00 24.19 ug/m3 1.38 ug/m3 75.69 ug/m3 83.93 ug/m3 32.39 C 59.26 % 1,005.25 mbar 1.01 m/s 81.62 Deg 1.26 ug/m3
2021-08-02 18:00 11.88 ug/m3 1.29 ug/m3 96.36 ug/m3 59.82 ug/m3 33.41 C 58.53 % 1,004.95 mbar 1.3 m/s 96.63 Deg 1.06 ug/m3
2021-08-02 17:00 10.1 ug/m3 1.23 ug/m3 103.4 ug/m3 79.08 ug/m3 34.17 C 53.36 % 1,004.98 mbar 1.46 m/s 133.1 Deg 1.16 ug/m3
2021-08-02 16:00 11.45 ug/m3 1.37 ug/m3 105.79 ug/m3 81.37 ug/m3 33.37 C 59.85 % 1,005.23 mbar 2.04 m/s 71.47 Deg 1.64 ug/m3
2021-08-02 15:00 8 ug/m3 1.41 ug/m3 116.5 ug/m3 33.77 ug/m3 34.59 C 51.23 % 1,005.42 mbar 1.98 m/s 101.35 Deg 1.11 ug/m3
2021-08-02 14:00 7.08 ug/m3 1.49 ug/m3 104.05 ug/m3 26.77 ug/m3 36.26 C 36.33 % 1,005.53 mbar 1.74 m/s 191.57 Deg 1.02 ug/m3
2021-08-02 13:00 4.82 ug/m3 1.49 ug/m3 98.92 ug/m3 43 ug/m3 36.25 C 31.17 % 1,005.63 mbar 2.57 m/s 220.1 Deg 0.91 ug/m3
2021-08-02 12:00 3.5 ug/m3 1.62 ug/m3 104.76 ug/m3 80.02 ug/m3 34.81 C 36.06 % 1,005.73 mbar 2.38 m/s 209.98 Deg 0.72 ug/m3
2021-08-02 11:00 18.71 ug/m3 1.29 ug/m3 88.05 ug/m3 87.25 ug/m3 31.67 C 65.62 % 1,005.70 mbar 3.32 m/s 165.48 Deg 3.53 ug/m3
2021-08-02 10:00 38.01 ug/m3 1.54 ug/m3 72.05 ug/m3 108.26 ug/m3 32.09 C 55.83 % 1,005.55 mbar 2.47 m/s 170.48 Deg 8.24 ug/m3
2021-08-02 09:00 49.89 ug/m3 1.62 ug/m3 55.18 ug/m3 133.09 ug/m3 31.95 C 55.91 % 1,005.37 mbar 1.99 m/s 132.3 Deg 11.58 ug/m3
2021-08-02 08:00 62.94 ug/m3 1.82 ug/m3 34.04 ug/m3 117.91 ug/m3 31.23 C 56.42 % 1,005.20 mbar 0.95 m/s 172.25 Deg 21.12 ug/m3

It is to be noted that the data is provisional and subject to quality assurance procedures. For validated data kindly refer your request to contact.air@era.org.mt